DW4394 Weather Reports


Display with metric or nautical units.
time (UTC)temp
F
wind
direction
speed
MPH
gust
MPH
rain 1hr
in
rain 24hr
in
rain mn
in
humidity
%
barometer
mb
20260507010105 84 30 0.0 3.0 0.00 0.00 0.00 16 1010.0
20260507004557 84 325 3.0 8.0 0.00 0.00 0.00 16 1010.0
20260507003057 86 10 2.0 4.0 0.00 0.00 0.00 15 1010.1
20260507001604 87 22 1.0 3.0 0.00 0.00 0.00 16 1010.1
20260507000059 85 268 1.0 5.0 0.00 0.00 0.00 16 1010.1
20260506234558 84 88 2.0 8.0 0.00 0.00 0.00 17 1010.1
20260506233119 84 55 3.0 10.0 0.00 0.00 0.00 17 1010.2
20260506231558 86 350 1.0 4.0 0.00 0.00 0.00 16 1010.3
20260506230057 86 53 2.0 5.0 0.00 0.00 0.00 16 1010.5
20260506224558 87 23 3.0 8.0 0.00 0.00 0.00 16 1010.7
20260506223103 85 58 5.0 9.0 0.00 0.00 0.00 17 1010.9
20260506221559 85 287 1.0 4.0 0.00 0.00 0.00 18 1011.2
20260506220059 82 98 3.0 8.0 0.00 0.00 0.00 19 1011.4
20260506214558 82 341 2.0 9.0 0.00 0.00 0.00 19 1011.9
20260506213113 82 11 4.0 12.0 0.00 0.00 0.00 19 1011.9
20260506211558 83 52 8.0 13.0 0.00 0.00 0.00 19 1012.0
20260506210058 81 11 3.0 10.0 0.00 0.00 0.00 19 1012.3
20260506204557 82 101 1.0 10.0 0.00 0.00 0.00 19 1012.3
20260506203057 81 314 2.0 8.0 0.00 0.00 0.00 20 1012.5
20260506201557 82 62 3.0 11.0 0.00 0.00 0.00 19 1012.6
20260506200058 82 86 5.0 11.0 0.00 0.00 0.00 20 1012.7
20260506194633 79 333 3.0 9.0 0.00 0.00 0.00 22 1012.7
20260506193105 79 157 1.0 9.0 0.00 0.00 0.00 22 1012.9
20260506191557 80 117 1.0 6.0 0.00 0.00 0.00 22 1013.0
20260506184558 80 323 4.0 8.0 0.00 0.00 0.00 21 1013.2
20260506183058 79 281 3.0 7.0 0.00 0.00 0.00 22 1013.3
20260506181557 77 13 2.0 6.0 0.00 0.00 0.00 24 1013.4
20260506180105 76 22 2.0 9.0 0.00 0.00 0.00 24 1013.5
20260506174558 76 34 2.0 8.0 0.00 0.00 0.00 24 1013.4
20260506173059 75 161 1.0 8.0 0.00 0.00 0.00 25 1013.4
20260506171602 74 28 2.0 5.0 0.00 0.00 0.00 25 1013.5
20260506170109 73 5 2.0 5.0 0.00 0.00 0.00 25 1013.4
20260506164606 73 132 1.0 4.0 0.00 0.00 0.00 26 1013.3
20260506163116 72 40 3.0 5.0 0.00 0.00 0.00 26 1013.3
20260506161619 71 188 1.0 4.0 0.00 0.00 0.00 27 1013.2
20260506160057 70 290 2.0 5.0 0.00 0.00 0.00 27 1013.2
20260506154619 69 212 3.0 9.0 0.00 0.00 0.00 30 1013.1
20260506153107 68 225 3.0 9.0 0.00 0.00 0.00 32 1013.0
20260506151559 66 158 3.0 10.0 0.00 0.00 0.00 34 1012.9
20260506150101 66 202 4.0 9.0 0.00 0.00 0.00 35 1012.8
20260506144556 65 204 4.0 7.0 0.00 0.00 0.00 36 1012.7
20260506143106 64 172 5.0 10.0 0.00 0.00 0.00 37 1012.6
20260506141557 63 213 3.0 9.0 0.00 0.00 0.00 38 1012.4
20260506140059 62 181 4.0 10.0 0.00 0.00 0.00 38 1012.3
20260506134557 61 171 3.0 6.0 0.00 0.00 0.00 39 1012.0
20260506133057 59 146 4.0 8.0 0.00 0.00 0.00 41 1011.9
20260506131600 59 142 2.0 6.0 0.00 0.00 0.00 41 1011.7
20260506130100 59 188 2.0 7.0 0.00 0.00 0.00 40 1011.6
20260506124556 59 155 4.0 7.0 0.00 0.00 0.00 40 1011.4
20260506123056 59 171 3.0 7.0 0.00 0.00 0.00 40 1011.2
20260506121556 59 144 2.0 5.0 0.00 0.00 0.00 40 1011.1
20260506120100 60 157 3.0 7.0 0.00 0.00 0.00 40 1011.2
20260506114606 60 211 2.0 7.0 0.00 0.00 0.00 39 1011.0
20260506113057 60 159 3.0 6.0 0.00 0.00 0.00 38 1010.9
20260506111556 61 148 3.0 9.0 0.00 0.00 0.00 38 1010.8
20260506104557 61 183 5.0 9.0 0.00 0.00 0.00 38 1010.5
20260506103056 61 169 3.0 8.0 0.00 0.00 0.00 37 1010.5
20260506101605 61 200 4.0 10.0 0.00 0.00 0.00 37 1010.3
20260506100057 62 194 5.0 11.0 0.00 0.00 0.00 37 1010.1
20260506094621 62 136 4.0 9.0 0.00 0.00 0.00 37 1010.1
20260506093057 62 188 5.0 10.0 0.00 0.00 0.00 36 1010.0
20260506091555 62 161 3.0 10.0 0.00 0.00 0.00 36 1009.9
20260506090055 62 199 4.0 11.0 0.00 0.00 0.00 35 1009.8
20260506084556 63 170 4.0 10.0 0.00 0.00 0.00 34 1009.7
20260506083103 63 153 3.0 7.0 0.00 0.00 0.00 34 1009.6
20260506081556 63 146 5.0 9.0 0.00 0.00 0.00 33 1009.7
20260506073108 64 159 6.0 10.0 0.00 0.00 0.00 31 1009.9
20260506071600 64 172 5.0 11.0 0.00 0.00 0.00 28 1009.9
20260506070110 64 134 4.0 8.0 0.00 0.00 0.00 27 1009.9
20260506061601 64 156 3.0 5.0 0.00 0.00 0.00 28 1009.4
20260506060104 64 188 3.0 6.0 0.00 0.00 0.00 29 1009.2
20260506044559 66 196 4.0 9.0 0.00 0.00 0.00 28 1008.6
20260506043059 67 209 4.0 7.0 0.00 0.00 0.00 27 1008.5
20260506041559 67 178 3.0 7.0 0.00 0.00 0.00 27 1008.3
20260506040105 67 188 3.0 6.0 0.00 0.00 0.00 26 1008.0
20260506034614 68 174 3.0 8.0 0.00 0.00 0.00 26 1007.8
20260506033058 68 137 3.0 7.0 0.00 0.00 0.00 25 1007.6
20260506031606 69 177 4.0 10.0 0.00 0.00 0.00 25 1007.3
20260506024558 70 159 4.0 9.0 0.00 0.00 0.00 24 1006.8
20260506023059 70 204 4.0 11.0 0.00 0.00 0.00 24 1006.7
20260506021600 71 175 5.0 11.0 0.00 0.00 0.00 23 1006.5
20260506014600 73 219 3.0 8.0 0.00 0.00 0.00 21 1006.2
20260506013058 74 198 5.0 9.0 0.00 0.00 0.00 20 1006.1
20260506011607 75 217 4.0 10.0 0.00 0.00 0.00 18 1006.0